Overview Statistics Trail Chart Weather Telemetry Raw packets
 

This is the latest recevied weather packets stored in our database for station/object DH2PG-6. If no packets are shown the sender has not sent any weather packets the latest 10 day(s).

<< 64 65 66 67 68 69 70 >>
Time Temp. Humidity Pressure Rain* Wind** Luminosity Snow
1788110045 20° C 65% 1010.9 hPa 0 mm - - -
1788109445 20° C 64% 1010.9 hPa 0 mm - - -
1788109144 20° C 64% 1011 hPa 0 mm - - -
1788108544 20.56° C 63% 1011.1 hPa 0 mm - - -
1788108243 20.56° C 63% 1011.1 hPa 0 mm - - -
1788107643 21.11° C 62% 1011.2 hPa 0 mm - - -
1788107342 21.11° C 62% 1011.3 hPa 0 mm - - -
1788107042 21.11° C 61% 1011.1 hPa 0 mm - - -
1788106742 21.11° C 61% 1011.3 hPa 0 mm - - -
1788106442 21.11° C 60% 1011.3 hPa 0 mm - - -
1788106141 21.67° C 60% 1011.2 hPa 0 mm - - -
1788105841 21.67° C 61% 1011.3 hPa 0 mm - - -
1788105541 21.67° C 61% 1011.3 hPa 0 mm - - -
1788105240 21.67° C 61% 1011.3 hPa 0 mm - - -
1788104940 21.67° C 61% 1011.3 hPa 0 mm - - -
1788104340 21.67° C 60% 1011.3 hPa 0 mm - - -
1788104039 21.67° C 60% 1011.2 hPa 0 mm - - -
1788103739 21.67° C 59% 1011.3 hPa 0 mm - - -
1788103439 21.67° C 59% 1011.3 hPa 0 mm - - -
1788103138 21.67° C 59% 1011.4 hPa 0 mm - - -
1788102838 22.22° C 60% 1011.4 hPa 0 mm - - -
1788102538 21.67° C 59% 1011.3 hPa 0 mm - - -
1788102238 22.22° C 60% 1011.3 hPa 0 mm - - -
1788101937 22.22° C 60% 1011.4 hPa 0 mm - - -
1788101637 22.22° C 59% 1011.5 hPa 0 mm - - -

* Rain latest hour (hover to see other rain measurements)
** Current wind speed in m/s (hover to see current wind gust speed)